Regional Weather Roundup
Issued by NWS Charleston, WV

Home | Current Version | Previous Version | Text Only | Print | Product List | Glossary Off
Versions: 1 2 3 4 5 6 7 8 9 10 11 12 13 14 15 16 17 18 19 20 21 22 23 24 25 26 27 28 29 30 31 32 33 34 35 36 37 38 39 40 41 42 43 44 45 46 47 48 49 50

000
ASUS41 KRLX 162010
RWRRLX
West Virginia Regional Weather Roundup
National Weather Service Charleston WV
400 PM EDT MON OCT 16 2017

Note: "fair" indicates few or no clouds below 12,000 feet with no
significant weather and/or obstructions to visibility.

WVZ003-162100-
Northern Panhandle of West Virginia

CITY           SKY/WX    TMP DP  RH WIND       PRES   REMARKS
WHEELING       SUNNY     54  33  45 W14       30.22S
$$

WVZ009-162100-
Northwest West Virginia

CITY           SKY/WX    TMP DP  RH WIND       PRES   REMARKS
PARKERSBURG    MOSUNNY   61  36  39 NW9G20    30.27S
$$

WVZ006-162100-
Western West Virginia

CITY           SKY/WX    TMP DP  RH WIND       PRES   REMARKS
HUNTINGTON     PTSUNNY   59  38  45 NW8G17    30.26F
$$

WVZ015-162100-
West Central West Virginia

CITY           SKY/WX    TMP DP  RH WIND       PRES   REMARKS
CHARLESTON     PTSUNNY   63  39  41 NW8       30.24F
$$

WVZ022-031-162100-
North Central West Virginia

CITY           SKY/WX    TMP DP  RH WIND       PRES   REMARKS
CLARKSBURG     MOSUNNY   53  44  71 NE3       30.23R
MORGANTOWN     MOSUNNY   57  38  48 N10G20    30.23F
$$

WVZ025-035-042-045-162100-
Southern West Virginia

CITY           SKY/WX    TMP DP  RH WIND       PRES   REMARKS
BECKLEY        CLOUDY    52  38  58 N10       30.23R
LOGAN            N/A     57  39  51 NW5       30.25S
BLUEFIELD      CLOUDY    51  35  54 NW9       30.23S
LEWISBURG      CLOUDY    53  37  54 N10       30.21S
$$

WVZ047-162100-
Northern Mountains of West Virginia

CITY           SKY/WX    TMP DP  RH WIND       PRES   REMARKS
ELKINS         LGT RAIN  48  39  71 NW13G18   30.23R
$$

WVZ052-162100-
Eastern Panhandle of West Virginia

CITY           SKY/WX    TMP DP  RH WIND       PRES   REMARKS
MARTINSBURG    SUNNY     63  32  31 N15G24    30.13R
PETERSBURG     MOSUNNY   57  37  48 NW9G18    30.18F
$$



USA.gov is the U.S. government's official web portal to all federal, state and local government web resources and services.